Change the Weather History Date:

Wednesday, February 26, 2014

  Actual Average Record
Temperature  
Mean Temperature 6 °F -  
Max Temperature 21 °F 39 °F 57 °F (1988)
Min Temperature -9 °F 19 °F -11 °F (1950)
Degree Days  
Heating Degree Days 59    
Moisture  
Dew Point -1 °F    
Average Humidity 71    
Maximum Humidity 84    
Minimum Humidity 62    
Precipitation  
Precipitation 0.00 in - - ()
Sea Level Pressure  
Sea Level Pressure 30.06 in    
Wind  
Wind Speed 9 mph (West)    
Max Wind Speed 23 mph    
Max Gust Speed 32 mph    
Visibility 10 miles    
Events      
Averages and records for this station are not official NWS values.
T = Trace of Precipitation, MM = Missing Value Source: NWS Daily Summary

Daily Weather History Graph

Daily Weather History Graph

Search for Another Location

Airport or City:

Trip Planner

Search our weather history database for the weather conditions in past years. The results will help you decide how hot, cold, wet, or windy it might be!

Date:

Astronomy

Feb. 26, 2014 Rise Set
Actual Time 6:57 AM CST 6:02 PM CST
Civil Twilight 6:28 AM CST 6:31 PM CST
Nautical Twilight 5:56 AM CST 7:03 PM CST
Astronomical Twilight 5:23 AM CST 7:36 PM CST
Moon 4:46 AM CST (2/26) 3:15 PM CST (2/26)
Length of Visible Light 12h 02m
Length of Day
11h 05m
Waning Crescent, 10% of the Moon is Illuminated
Feb 26
Waning Crescent
Mar 1
New
Mar 8
First Quarter
Mar 16
Full
Mar 23
Last Quarter

Hourly Weather History & Observations

Time (CST) Temp. Windchill Dew Point Humidity Pressure Visibility Wind Dir Wind Speed Gust Speed Precip Events Conditions
12:15 AM -2.2 °F -14.2 °F -9.4 °F 71% 30.40 in 10.0 mi NW 5.8 mph - N/A   Clear
12:35 AM -2.2 °F -14.2 °F -9.4 °F 71% 30.40 in 10.0 mi NW 5.8 mph - N/A   Clear
12:55 AM -2.2 °F - -9.4 °F 71% 30.39 in 10.0 mi Calm Calm - N/A   Clear
1:15 AM -4.0 °F -16.3 °F -11.2 °F 71% 30.39 in 10.0 mi WNW 5.8 mph - N/A   Clear
1:35 AM -2.2 °F -15.6 °F -9.4 °F 71% 30.39 in 10.0 mi WNW 6.9 mph - N/A   Clear
1:55 AM -2.2 °F -14.2 °F -9.4 °F 71% 30.39 in 10.0 mi WNW 5.8 mph - N/A   Clear
2:15 AM -4.0 °F -14.6 °F -11.2 °F 71% 30.38 in 10.0 mi WNW 4.6 mph - N/A   Clear
2:35 AM -4.0 °F -14.6 °F -11.2 °F 71% 30.37 in 10.0 mi WNW 4.6 mph - N/A   Clear
2:55 AM -4.0 °F -12.4 °F -11.2 °F 71% 30.36 in 10.0 mi WNW 3.5 mph - N/A   Clear
3:15 AM -5.8 °F - -11.2 °F 77% 30.35 in 10.0 mi Calm Calm - N/A   Clear
3:35 AM -5.8 °F - -11.2 °F 77% 30.33 in 10.0 mi Calm Calm - N/A   Clear
3:55 AM -5.8 °F -14.5 °F -11.2 °F 77% 30.31 in 10.0 mi WNW 3.5 mph - N/A   Clear
4:15 AM -5.8 °F - -11.2 °F 77% 30.31 in 10.0 mi Calm Calm - N/A   Clear
4:35 AM -7.6 °F -18.8 °F -13.0 °F 77% 30.30 in 10.0 mi West 4.6 mph - N/A   Clear
4:55 AM -5.8 °F -16.7 °F -11.2 °F 77% 30.29 in 10.0 mi West 4.6 mph - N/A   Clear
5:15 AM -7.6 °F -18.8 °F -14.8 °F 71% 30.29 in 10.0 mi WSW 4.6 mph - N/A   Clear
5:35 AM -7.6 °F -20.6 °F -14.8 °F 71% 30.28 in 10.0 mi SW 5.8 mph - N/A   Clear
5:55 AM -7.6 °F -18.8 °F -11.2 °F 84% 30.27 in 10.0 mi WSW 4.6 mph - N/A   Clear
6:15 AM -7.6 °F -23.4 °F -14.8 °F 71% 30.27 in 10.0 mi WSW 8.1 mph - N/A   Clear
6:35 AM -7.6 °F -20.6 °F -11.2 °F 84% 30.25 in 10.0 mi WSW 5.8 mph - N/A   Clear
6:55 AM -9.4 °F -22.7 °F -14.8 °F 77% 30.22 in 10.0 mi WSW 5.8 mph - N/A   Clear
7:15 AM -7.6 °F -22.1 °F -14.8 °F 71% 30.21 in 10.0 mi West 6.9 mph - N/A   Clear
7:35 AM -7.6 °F -20.6 °F -11.2 °F 84% 30.22 in 10.0 mi WSW 5.8 mph - N/A   Clear
7:55 AM -7.6 °F -23.4 °F -11.2 °F 84% 30.22 in 10.0 mi WSW 8.1 mph - N/A   Clear
8:15 AM -5.8 °F -21.2 °F -9.4 °F 84% 30.21 in 10.0 mi WSW 8.1 mph - N/A   Clear
8:35 AM -2.2 °F -18.0 °F -9.4 °F 71% 30.20 in 10.0 mi West 9.2 mph - N/A   Clear
8:55 AM -2.2 °F -18.0 °F -9.4 °F 71% 30.19 in 10.0 mi WSW 9.2 mph - N/A   Clear
9:15 AM -0.4 °F -16.7 °F -7.6 °F 72% 30.18 in 10.0 mi WSW 10.4 mph - N/A   Clear
9:35 AM -0.4 °F -17.6 °F -7.6 °F 72% 30.17 in 10.0 mi WSW 11.5 mph - N/A   Clear
9:55 AM 1.4 °F -14.5 °F -5.8 °F 72% 30.15 in 10.0 mi WSW 10.4 mph - N/A   Clear
10:15 AM 1.4 °F -15.3 °F -5.8 °F 72% 30.13 in 10.0 mi SW 11.5 mph - N/A   Clear
10:35 AM 3.2 °F -13.1 °F -4.0 °F 72% 30.12 in 10.0 mi SW 11.5 mph - N/A   Clear
10:55 AM 5.0 °F -12.3 °F -2.2 °F 72% 30.10 in 10.0 mi WSW 13.8 mph 20.7 mph N/A   Clear
11:15 AM 6.8 °F -10.0 °F -2.2 °F 67% 30.09 in 10.0 mi WSW 13.8 mph 19.6 mph N/A   Clear
11:35 AM 8.6 °F -8.9 °F 1.4 °F 73% 30.07 in 10.0 mi WSW 16.1 mph 23.0 mph N/A   Clear
11:55 AM 8.6 °F -10.5 °F 1.4 °F 73% 30.05 in 10.0 mi SW 19.6 mph - N/A   Clear
12:15 PM 10.4 °F -7.2 °F 3.2 °F 73% 30.03 in 10.0 mi WSW 17.3 mph - N/A   Clear
12:35 PM 10.4 °F -7.2 °F 3.2 °F 73% 30.01 in 10.0 mi SW 17.3 mph - N/A   Clear
12:55 PM 12.2 °F -5.8 °F 3.2 °F 67% 29.99 in 10.0 mi WSW 19.6 mph - N/A   Clear
1:15 PM 12.2 °F -5.3 °F 5.0 °F 73% 29.96 in 10.0 mi SW 18.4 mph 24.2 mph N/A   Clear
1:35 PM 14.0 °F -3.4 °F 5.0 °F 67% 29.94 in 10.0 mi SW 19.6 mph 26.5 mph N/A   Clear
1:55 PM 15.8 °F -2.3 °F 6.8 °F 68% 29.91 in 9.0 mi SW 23.0 mph 28.8 mph N/A   Clear
2:15 PM 15.8 °F -2.3 °F 6.8 °F 68% 29.90 in 10.0 mi SW 23.0 mph 31.1 mph N/A   Clear
2:35 PM 17.6 °F 0.1 °F 8.6 °F 68% 29.88 in 8.0 mi WSW 23.0 mph 31.1 mph N/A   Clear
2:55 PM 17.6 °F 1.7 °F 8.6 °F 68% 29.86 in 10.0 mi SW 18.4 mph - N/A   Clear
3:15 PM 19.4 °F 4.1 °F 10.4 °F 68% 29.84 in 10.0 mi WSW 18.4 mph 28.8 mph N/A   Clear
3:35 PM 19.4 °F 4.1 °F 10.4 °F 68% 29.82 in 10.0 mi WSW 18.4 mph 25.3 mph N/A   Clear
3:55 PM 21.2 °F 5.6 °F 12.2 °F 68% 29.81 in 10.0 mi WSW 20.7 mph 27.6 mph N/A   Clear
4:15 PM 21.2 °F 5.6 °F 12.2 °F 68% 29.79 in 10.0 mi WSW 20.7 mph 26.5 mph N/A   Clear
4:35 PM 21.2 °F 6.0 °F 12.2 °F 68% 29.78 in 10.0 mi WSW 19.6 mph 29.9 mph N/A   Clear
4:55 PM 21.2 °F 4.9 °F 12.2 °F 68% 29.78 in 10.0 mi West 23.0 mph 32.2 mph N/A   Clear
5:15 PM 21.2 °F 6.4 °F 12.2 °F 68% 29.78 in 10.0 mi West 18.4 mph 25.3 mph N/A   Clear
5:35 PM 21.2 °F 6.0 °F 12.2 °F 68% 29.78 in 10.0 mi West 19.6 mph 26.5 mph N/A   Clear
5:55 PM 21.2 °F 6.0 °F 10.4 °F 63% 29.79 in 10.0 mi West 19.6 mph 26.5 mph N/A   Clear
6:15 PM 21.2 °F 8.9 °F 10.4 °F 63% 29.80 in 10.0 mi West 12.7 mph - N/A   Clear
6:35 PM 19.4 °F 6.6 °F 8.6 °F 63% 29.81 in 10.0 mi West 12.7 mph - N/A   Clear
6:55 PM 19.4 °F 5.5 °F 8.6 °F 63% 29.81 in 10.0 mi West 15.0 mph 18.4 mph N/A   Clear
7:15 PM 19.4 °F 7.2 °F 8.6 °F 63% 29.82 in 10.0 mi West 11.5 mph 18.4 mph N/A   Clear
7:35 PM 19.4 °F 6.6 °F 8.6 °F 63% 29.82 in 10.0 mi WNW 12.7 mph 17.3 mph N/A   Clear
7:55 PM 19.4 °F 7.2 °F 8.6 °F 63% 29.82 in 10.0 mi WNW 11.5 mph - N/A   Clear
8:15 PM 19.4 °F 8.6 °F 8.6 °F 63% 29.82 in 10.0 mi WNW 9.2 mph 17.3 mph N/A   Partly Cloudy
8:35 PM 19.4 °F 5.0 °F 8.6 °F 63% 29.83 in 10.0 mi WNW 16.1 mph 20.7 mph N/A   Partly Cloudy
8:55 PM 19.4 °F 6.6 °F 8.6 °F 63% 29.85 in 10.0 mi NW 12.7 mph 25.3 mph N/A   Clear
9:15 PM 17.6 °F 5.7 °F 8.6 °F 68% 29.86 in 10.0 mi NW 10.4 mph 19.6 mph N/A   Clear
9:35 PM 17.6 °F 7.3 °F 6.8 °F 63% 29.87 in 10.0 mi NW 8.1 mph 19.6 mph N/A   Clear
9:55 PM 15.8 °F 2.1 °F 6.8 °F 68% 29.89 in 10.0 mi NNW 12.7 mph 23.0 mph N/A   Partly Cloudy
10:15 PM 15.8 °F 0.3 °F 6.8 °F 68% 29.91 in 10.0 mi North 16.1 mph 20.7 mph N/A   Scattered Clouds
10:35 PM 12.2 °F -2.5 °F 6.8 °F 79% 29.92 in 10.0 mi North 12.7 mph 23.0 mph N/A   Mostly Cloudy
10:55 PM 12.2 °F -4.3 °F 3.2 °F 67% 29.92 in 10.0 mi North 16.1 mph 23.0 mph N/A   Scattered Clouds
11:15 PM 10.4 °F -6.0 °F 1.4 °F 67% 29.94 in 10.0 mi NNW 15.0 mph 28.8 mph N/A   Clear
11:35 PM 10.4 °F -6.0 °F -0.4 °F 62% 29.95 in 10.0 mi North 15.0 mph 24.2 mph N/A   Clear
11:55 PM 8.6 °F -10.0 °F -0.4 °F 67% 29.96 in 10.0 mi NNW 18.4 mph 29.9 mph N/A   Partly Cloudy